CW0962 Weather Reports


Display with metric or nautical units.
time (UTC)temp
F
wind
direction
speed
MPH
gust
MPH
rain 1hr
in
rain 24hr
in
rain mn
in
humidity
%
barometer
mb
20210305014024 31 294 0.0 5.0 0.00 0.00 0.00 42 1002.4
20210305013519 31 274 0.0 5.0 0.00 0.00 0.00 40 1002.5
20210305013044 31 247 1.0 9.0 0.00 0.00 0.00 41 1002.4
20210305012851 31 268 0.0 9.0 0.00 0.00 0.00 39 1002.4
20210305012244 31 267 1.0 9.0 0.00 0.00 0.00 40 1002.5
20210305011539 31 328 1.0 5.0 0.00 0.00 0.00 39 1002.4
20210305011024 31 346 2.0 6.0 0.00 0.00 0.00 38 1002.5
20210305010521 31 355 0.0 10.0 0.00 0.00 0.00 38 1002.5
20210305010033 32 310 1.0 13.0 0.00 0.00 0.00 39 1002.5
20210305005819 32 309 5.0 13.0 0.00 0.00 0.00 39 1002.5
20210305005339 32 14 1.0 7.0 0.00 0.00 0.00 38 1002.4
20210305004531 32 297 1.0 12.0 0.00 0.00 0.00 38 1002.6
20210305004028 32 325 0.0 12.0 0.00 0.00 0.00 40 1002.6
20210305003519 32 343 1.0 9.0 0.00 0.00 0.00 40 1002.5
20210305003102 32 355 4.0 6.0 0.00 0.00 0.00 40 1002.5
20210305002740 32 336 1.0 6.0 0.00 0.00 0.00 40 1002.5
20210305002224 32 238 0.0 6.0 0.00 0.00 0.00 41 1002.6
20210305001521 32 296 1.0 5.0 0.00 0.00 0.00 42 1002.6
20210305001025 32 285 1.0 5.0 0.00 0.00 0.00 44 1002.5
20210305000654 32 336 0.0 6.0 0.00 0.00 0.00 43 1002.5
20210304235957 32 276 6.0 7.0 0.00 0.00 0.00 44 1002.4
20210304235426 32 302 0.0 7.0 0.00 0.00 0.00 45 1002.4
20210304234541 32 277 1.0 7.0 0.00 0.00 0.00 44 1002.4
20210304234022 33 348 1.0 7.0 0.00 0.00 0.00 44 1002.4
20210304233528 33 307 1.0 2.0 0.00 0.00 0.00 45 1002.3
20210304233208 33 5 0.0 5.0 0.00 0.00 0.00 45 1002.2
20210304233020 33 285 1.0 5.0 0.00 0.00 0.00 43 1002.2
20210304232426 33 331 0.0 5.0 0.00 0.00 0.00 43 1002.2
20210304231521 33 275 0.0 7.0 0.00 0.00 0.00 42 1002.2
20210304231028 34 5 0.0 8.0 0.00 0.00 0.00 43 1002.1
20210304230527 34 341 6.0 8.0 0.00 0.00 0.00 42 1002.0
20210304230144 34 305 2.0 6.0 0.00 0.00 0.00 42 1002.0
20210304225928 34 299 0.0 8.0 0.00 0.00 0.00 41 1001.9
20210304225233 34 333 0.0 9.0 0.00 0.00 0.00 42 1002.0
20210304224533 35 330 4.0 9.0 0.00 0.00 0.00 41 1001.9
20210304224025 35 296 0.0 7.0 0.00 0.00 0.00 42 1001.9
20210304223526 35 360 0.0 7.0 0.00 0.00 0.00 42 1001.8
20210304223053 35 355 2.0 5.0 0.00 0.00 0.00 43 1001.8
20210304222836 36 300 0.0 5.0 0.00 0.00 0.00 42 1001.7
20210304222136 36 232 5.0 6.0 0.00 0.00 0.00 41 1001.6
20210304221522 36 348 3.0 8.0 0.00 0.00 0.00 40 1001.6
20210304221030 36 48 0.0 8.0 0.00 0.00 0.00 39 1001.5
20210304220518 36 347 2.0 9.0 0.00 0.00 0.00 40 1001.5
20210304220219 37 286 0.0 9.0 0.00 0.00 0.00 39 1001.5
20210304220051 37 337 4.0 9.0 0.00 0.00 0.00 39 1001.5
20210304215534 37 289 0.0 9.0 0.00 0.00 0.00 40 1001.5
20210304214526 37 144 1.0 9.0 0.00 0.00 0.00 39 1001.4
20210304214048 38 291 0.0 8.0 0.00 0.00 0.00 40 1001.5
20210304213529 38 320 0.0 8.0 0.00 0.00 0.00 39 1001.4
20210304213030 38 317 0.0 9.0 0.00 0.00 0.00 39 1001.3
20210304212824 38 5 0.0 9.0 0.00 0.00 0.00 39 1001.4
20210304212207 39 290 1.0 13.0 0.00 0.00 0.00 39 1001.4
20210304211529 39 98 4.0 16.0 0.00 0.00 0.00 40 1001.2
20210304211032 39 303 1.0 16.0 0.00 0.00 0.00 41 1001.3
20210304210519 40 167 4.0 10.0 0.00 0.00 0.00 40 1001.5
20210304210023 40 277 2.0 14.0 0.00 0.00 0.00 40 1001.5
20210304205857 40 328 2.0 14.0 0.00 0.00 0.00 40 1001.5
20210304205414 40 296 5.0 12.0 0.00 0.00 0.00 40 1001.4
20210304204547 40 317 2.0 12.0 0.00 0.00 0.00 41 1001.5
20210304204033 41 261 12.0 18.0 0.00 0.00 0.00 42 1001.5
20210304203657 41 315 3.0 18.0 0.00 0.00 0.00 41 1001.5
20210304203406 41 342 10.0 10.0 0.00 0.00 0.00 43 1001.5
20210304203129 41 344 2.0 9.0 0.00 0.00 0.00 42 1001.5
20210304202712 41 219 6.0 8.0 0.00 0.00 0.00 43 1001.5
20210304201532 41 332 2.0 10.0 0.00 0.00 0.00 44 1001.6
20210304201023 41 296 0.0 10.0 0.00 0.00 0.00 43 1001.5
20210304200520 41 333 6.0 10.0 0.00 0.00 0.00 42 1001.6
20210304200252 41 295 1.0 10.0 0.00 0.00 0.00 43 1001.6
20210304200028 42 327 1.0 13.0 0.00 0.00 0.00 44 1001.7
20210304195328 42 317 7.0 13.0 0.00 0.00 0.00 43 1001.6
20210304194527 42 272 5.0 11.0 0.00 0.00 0.00 42 1001.7
20210304194030 43 339 4.0 7.0 0.00 0.00 0.00 43 1001.6
20210304193528 43 355 2.0 9.0 0.00 0.00 0.00 43 1001.6
20210304193152 43 199 1.0 9.0 0.00 0.00 0.00 43 1001.5
20210304192951 43 67 0.0 9.0 0.00 0.00 0.00 43 1001.5
20210304192325 43 309 7.0 8.0 0.00 0.00 0.00 43 1001.5
20210304191527 44 350 1.0 8.0 0.00 0.00 0.00 42 1001.4
20210304191041 44 321 5.0 8.0 0.00 0.00 0.00 42 1001.6
20210304190520 44 297 5.0 8.0 0.00 0.00 0.00 42 1001.5
20210304190119 45 323 0.0 11.0 0.00 0.00 0.00 42 1001.5
20210304185904 44 292 0.0 11.0 0.00 0.00 0.00 42 1001.6
20210304185318 44 311 2.0 15.0 0.00 0.00 0.00 43 1001.6
20210304184542 44 321 1.0 15.0 0.00 0.00 0.00 43 1001.6
20210304184033 44 274 1.0 8.0 0.00 0.00 0.00 42 1001.7
20210304183517 44 300 5.0 8.0 0.00 0.00 0.00 43 1001.8
20210304183035 44 333 4.0 7.0 0.00 0.00 0.00 43 1001.9
20210304182816 44 321 3.0 8.0 0.00 0.00 0.00 43 1002.0
20210304182239 44 302 0.0 8.0 0.00 0.00 0.00 43 1002.0
20210304181529 45 18 1.0 9.0 0.00 0.00 0.00 42 1002.0
20210304181030 45 311 2.0 7.0 0.00 0.00 0.00 41 1002.1
20210304180520 45 39 1.0 10.0 0.00 0.00 0.00 45 1002.2
20210304180201 45 301 1.0 18.0 0.00 0.00 0.00 44 1002.2
20210304175904 45 250 4.0 18.0 0.00 0.00 0.00 43 1002.4
20210304175201 44 16 3.0 10.0 0.00 0.00 0.00 45 1002.5
20210304174527 44 317 5.0 12.0 0.00 0.00 0.00 45 1002.4
20210304174027 44 324 0.0 9.0 0.00 0.00 0.00 46 1002.7
20210304173531 44 24 1.0 9.0 0.00 0.00 0.00 47 1002.6
20210304173027 43 10 5.0 9.0 0.00 0.00 0.00 48 1002.7
20210304172754 43 264 1.0 10.0 0.00 0.00 0.00 48 1002.9
20210304172225 43 242 1.0 10.0 0.00 0.00 0.00 48 1003.0
20210304171526 43 336 5.0 6.0 0.00 0.00 0.00 48 1003.0
20210304171020 43 300 2.0 8.0 0.00 0.00 0.00 50 1003.3
20210304170728 43 200 1.0 8.0 0.00 0.00 0.00 50 1003.3
20210304170418 43 315 1.0 9.0 0.00 0.00 0.00 51 1003.4
20210304170142 42 306 1.0 9.0 0.00 0.00 0.00 51 1003.5
20210304165713 42 345 1.0 10.0 0.00 0.00 0.00 53 1003.6
20210304164523 41 300 0.0 10.0 0.00 0.00 0.00 53 1003.7
20210304164113 41 38 10.0 10.0 0.00 0.00 0.00 54 1003.8
20210304163518 41 323 1.0 10.0 0.00 0.00 0.00 53 1004.0
20210304163420 40 355 0.0 9.0 0.00 0.00 0.00 53 1004.0
20210304163308 40 60 2.0 9.0 0.00 0.00 0.00 54 1004.1
20210304163120 40 9 0.0 5.0 0.00 0.00 0.00 54 1004.2
20210304161548 40 9 1.0 9.0 0.00 0.00 0.00 54 1004.2
20210304161107 40 333 2.0 9.0 0.00 0.00 0.00 54 1004.1
20210304160527 41 323 2.0 8.0 0.00 0.00 0.00 54 1004.3
20210304160245 41 288 3.0 11.0 0.00 0.00 0.00 53 1004.2
20210304160055 41 331 3.0 11.0 0.00 0.00 0.00 54 1004.2
20210304155631 41 237 1.0 11.0 0.00 0.00 0.00 54 1004.2
20210304154607 41 11 1.0 6.0 0.00 0.00 0.00 55 1004.3
20210304154045 41 299 1.0 8.0 0.00 0.00 0.00 56 1004.3
20210304153535 41 325 2.0 8.0 0.00 0.00 0.00 57 1004.2
20210304153250 41 325 4.0 7.0 0.00 0.00 0.00 58 1004.3
20210304153036 40 337 4.0 8.0 0.00 0.00 0.00 58 1004.3
20210304152850 40 355 4.0 8.0 0.00 0.00 0.00 59 1004.4
20210304151521 40 30 5.0 7.0 0.00 0.00 0.00 60 1004.4
20210304151018 40 5 0.0 7.0 0.00 0.00 0.00 60 1004.5
20210304150536 39 360 6.0 6.0 0.00 0.00 0.00 62 1004.5
20210304150218 39 318 1.0 6.0 0.00 0.00 0.00 62 1004.5
20210304150041 39 207 0.0 6.0 0.00 0.00 0.00 62 1004.5
20210304145646 39 341 0.0 6.0 0.00 0.00 0.00 62 1004.6
20210304144533 39 106 2.0 7.0 0.00 0.00 0.00 62 1004.5
20210304144036 39 265 2.0 7.0 0.00 0.00 0.00 63 1004.7
20210304143519 39 331 7.0 7.0 0.00 0.00 0.00 62 1004.8
20210304143022 39 17 3.0 7.0 0.00 0.00 0.00 63 1004.9
20210304142742 39 10 5.0 7.0 0.00 0.00 0.00 63 1005.0
20210304142102 39 48 1.0 5.0 0.00 0.00 0.00 63 1004.9
20210304141529 39 16 0.0 5.0 0.00 0.00 0.00 64 1004.9
20210304141031 39 22 4.0 5.0 0.00 0.00 0.00 66 1005.0
20210304140522 38 60 1.0 5.0 0.00 0.00 0.00 67 1005.0
20210304140021 38 257 1.0 5.0 0.00 0.00 0.00 68 1005.0
20210304135730 37 360 0.0 6.0 0.00 0.00 0.00 69 1005.0
20210304135111 37 32 5.0 6.0 0.00 0.00 0.00 69 1005.1
20210304134521 36 24 1.0 6.0 0.00 0.00 0.00 70 1005.2
20210304134025 36 5 3.0 5.0 0.00 0.00 0.00 71 1005.3
20210304133520 36 26 2.0 8.0 0.00 0.00 0.00 71 1005.3
20210304133053 36 34 1.0 8.0 0.00 0.00 0.00 72 1005.4
20210304132912 36 13 2.0 7.0 0.00 0.00 0.00 72 1005.4
20210304132406 35 47 1.0 5.0 0.00 0.00 0.00 72 1005.5
20210304131540 35 10 4.0 5.0 0.00 0.00 0.00 73 1005.5
20210304131035 35 22 1.0 6.0 0.00 0.00 0.00 73 1005.5
20210304130510 35 26 1.0 6.0 0.00 0.00 0.00 74 1005.5
20210304130029 34 19 1.0 2.0 0.00 0.00 0.00 74 1005.5
20210304125710 34 15 0.0 2.0 0.00 0.00 0.00 74 1005.5
20210304125209 34 284 0.0 1.0 0.00 0.00 0.00 75 1005.5
20210304124530 33 284 0.0 0.0 0.00 0.00 0.00 75 1005.6
20210304124029 33 284 0.0 1.0 0.00 0.00 0.00 75 1005.6
20210304123523 33 284 0.0 1.0 0.00 0.00 0.00 74 1005.6
20210304123130 32 284 0.0 1.0 0.00 0.00 0.00 74 1005.6
20210304122646 32 284 0.0 2.0 0.00 0.00 0.00 74 1005.6
20210304121520 32 284 0.0 2.0 0.00 0.00 0.00 74 1005.4
20210304121025 32 282 0.0 1.0 0.00 0.00 0.00 73 1005.4
20210304120522 32 282 0.0 1.0 0.00 0.00 0.00 73 1005.3
20210304120211 32 283 0.0 0.0 0.00 0.00 0.00 72 1005.2
20210304115949 31 283 0.0 0.0 0.00 0.00 0.00 72 1005.2
20210304115235 31 283 0.0 0.0 0.00 0.00 0.00 72 1005.2
20210304114518 31 283 0.0 0.0 0.00 0.00 0.00 71 1005.1
20210304114037 31 283 0.0 0.0 0.00 0.00 0.00 70 1005.1
20210304113522 31 283 0.0 0.0 0.00 0.00 0.00 70 1005.1
20210304113134 31 283 0.0 0.0 0.00 0.00 0.00 70 1005.1
20210304112845 31 283 0.0 0.0 0.00 0.00 0.00 69 1005.1
20210304112247 31 283 0.0 0.0 0.00 0.00 0.00 69 1005.1
20210304111524 31 283 0.0 0.0 0.00 0.00 0.00 69 1005.1
20210304111024 31 283 0.0 0.0 0.00 0.00 0.00 68 1005.2
20210304110520 31 283 0.0 0.0 0.00 0.00 0.00 68 1005.2
20210304110318 31 283 0.0 0.0 0.00 0.00 0.00 68 1005.2
20210304110043 32 283 0.0 0.0 0.00 0.00 0.00 68 1005.2
20210304105608 32 283 0.0 1.0 0.00 0.00 0.00 67 1005.2
20210304104521 32 283 0.0 1.0 0.00 0.00 0.00 67 1005.3
20210304104027 32 283 0.0 2.0 0.00 0.00 0.00 67 1005.3
20210304103510 33 283 0.0 2.0 0.00 0.00 0.00 67 1005.3
20210304103021 33 283 0.0 1.0 0.00 0.00 0.00 66 1005.3
20210304102742 33 283 0.0 0.0 0.00 0.00 0.00 66 1005.3
20210304102211 34 283 0.0 0.0 0.00 0.00 0.00 66 1005.4
20210304101519 34 283 0.0 0.0 0.00 0.00 0.00 67 1005.3
20210304101019 34 283 0.0 0.0 0.00 0.00 0.00 66 1005.3
20210304100522 34 283 0.0 0.0 0.00 0.00 0.00 66 1005.2
20210304100035 35 283 0.0 0.0 0.00 0.00 0.00 66 1005.3
20210304095807 35 283 0.0 0.0 0.00 0.00 0.00 66 1005.3
20210304095157 35 283 0.0 0.0 0.00 0.00 0.00 65 1005.2
20210304094529 36 283 0.0 0.0 0.00 0.00 0.00 66 1005.3
20210304094012 36 283 0.0 0.0 0.00 0.00 0.00 66 1005.3
20210304093504 36 283 0.0 0.0 0.00 0.00 0.00 66 1005.4
20210304093115 36 283 0.0 0.0 0.00 0.00 0.00 66 1005.4
20210304092916 36 283 0.0 1.0 0.00 0.00 0.00 67 1005.4
20210304092402 36 283 0.0 4.0 0.00 0.00 0.00 67 1005.5
20210304091605 36 283 0.0 4.0 0.00 0.00 0.00 67 1005.4
20210304091025 37 283 1.0 4.0 0.00 0.00 0.00 66 1005.5
20210304090510 37 241 0.0 0.0 0.00 0.00 0.00 67 1005.6
20210304090029 37 241 0.0 0.0 0.00 0.00 0.00 66 1005.5
20210304085805 37 241 0.0 0.0 0.00 0.00 0.00 66 1005.6
20210304085246 37 241 0.0 2.0 0.00 0.00 0.00 66 1005.6
20210304084532 37 241 0.0 2.0 0.00 0.00 0.00 66 1005.5
20210304084024 37 241 0.0 1.0 0.00 0.00 0.00 66 1005.5
20210304083520 37 241 0.0 0.0 0.00 0.00 0.00 66 1005.6
20210304083031 37 241 0.0 0.0 0.00 0.00 0.00 66 1005.7
20210304082806 37 241 0.0 0.0 0.00 0.00 0.00 66 1005.6
20210304082116 37 241 0.0 0.0 0.00 0.00 0.00 66 1005.6
20210304081518 37 241 0.0 0.0 0.00 0.00 0.00 66 1005.5
20210304081021 37 241 0.0 0.0 0.00 0.00 0.00 65 1005.4
20210304080511 37 241 0.0 1.0 0.00 0.00 0.00 65 1005.4
20210304080028 37 241 0.0 1.0 0.00 0.00 0.00 66 1005.4
20210304075645 37 244 0.0 1.0 0.00 0.00 0.00 65 1005.5
20210304075109 38 244 0.0 1.0 0.00 0.00 0.00 65 1005.5
20210304074517 38 244 0.0 0.0 0.00 0.00 0.00 65 1005.6
20210304074035 38 244 0.0 1.0 0.00 0.00 0.00 64 1005.6
20210304073524 38 244 0.0 1.0 0.00 0.00 0.00 64 1005.7
20210304073024 38 248 0.0 1.0 0.00 0.00 0.00 64 1005.5
20210304072543 38 248 0.0 1.0 0.00 0.00 0.00 64 1005.5
20210304072047 38 247 0.0 1.0 0.00 0.00 0.00 64 1005.5
20210304071534 38 247 0.0 1.0 0.00 0.00 0.00 64 1005.5
20210304071023 38 247 0.0 1.0 0.00 0.00 0.00 64 1005.7
20210304070520 38 247 0.0 2.0 0.00 0.00 0.00 64 1005.8
20210304070028 38 248 0.0 4.0 0.00 0.00 0.00 64 1005.8
20210304065746 38 248 0.0 5.0 0.00 0.00 0.00 64 1005.9
20210304065114 38 229 0.0 5.0 0.00 0.00 0.00 63 1006.1
20210304064526 38 244 0.0 2.0 0.00 0.00 0.00 63 1006.1
20210304064019 39 241 0.0 1.0 0.00 0.00 0.00 63 1006.1
20210304063505 39 241 0.0 1.0 0.00 0.00 0.00 63 1006.2
20210304063142 39 241 0.0 2.0 0.00 0.00 0.00 63 1006.3
20210304063035 39 241 0.0 2.0 0.00 0.00 0.00 63 1006.4
20210304062610 39 22 0.0 2.0 0.00 0.00 0.00 63 1006.4
20210304061553 39 58 0.0 2.0 0.00 0.00 0.00 63 1006.4
20210304061029 39 36 0.0 1.0 0.00 0.00 0.00 63 1006.5
20210304060522 39 36 0.0 1.0 0.00 0.00 0.00 64 1006.4
20210304060035 39 36 0.0 2.0 0.00 0.00 0.00 63 1006.4
20210304055215 39 325 0.0 2.0 0.00 0.00 0.00 63 1006.5
20210304054525 38 312 0.0 4.0 0.00 0.00 0.00 64 1006.6
20210304054026 38 312 0.0 5.0 0.00 0.00 0.00 63 1006.6
20210304053520 38 33 0.0 5.0 0.00 0.00 0.00 64 1006.5
20210304053023 38 267 1.0 7.0 0.00 0.00 0.00 64 1006.4
20210304052739 38 281 0.0 7.0 0.00 0.00 0.00 64 1006.5
20210304052134 38 278 1.0 4.0 0.00 0.00 0.00 64 1006.6
20210304051520 38 279 1.0 5.0 0.00 0.00 0.00 64 1006.5
20210304051028 38 248 1.0 5.0 0.00 0.00 0.00 63 1006.6
20210304050519 38 262 0.0 2.0 0.00 0.00 0.00 63 1006.6
20210304050031 38 265 0.0 2.0 0.00 0.00 0.00 63 1006.5
20210304045711 38 261 0.0 1.0 0.00 0.00 0.00 63 1006.6
20210304045125 38 246 0.0 2.0 0.00 0.00 0.00 63 1006.7
20210304044519 38 280 0.0 2.0 0.00 0.00 0.00 63 1006.7
20210304044027 38 283 1.0 2.0 0.00 0.00 0.00 63 1006.7
20210304043522 38 279 1.0 4.0 0.00 0.00 0.00 63 1006.7
20210304043042 38 277 0.0 4.0 0.00 0.00 0.00 63 1006.6
20210304042816 38 271 1.0 2.0 0.00 0.00 0.00 63 1006.6
20210304042123 38 247 0.0 2.0 0.00 0.00 0.00 62 1006.6
20210304041528 38 246 0.0 4.0 0.00 0.00 0.00 63 1006.7
20210304041025 39 284 0.0 4.0 0.00 0.00 0.00 63 1006.7
20210304040524 39 230 4.0 4.0 0.00 0.00 0.00 62 1006.7
20210304040055 39 244 0.0 2.0 0.00 0.00 0.00 62 1006.8
20210304035928 39 246 0.0 4.0 0.00 0.00 0.00 62 1006.8
20210304035433 39 237 0.0 4.0 0.00 0.00 0.00 61 1006.9
20210304034523 39 240 0.0 4.0 0.00 0.00 0.00 61 1006.8
20210304034026 39 240 0.0 4.0 0.00 0.00 0.00 61 1006.9
20210304033521 39 244 0.0 2.0 0.00 0.00 0.00 61 1007.1
20210304033251 39 246 0.0 2.0 0.00 0.00 0.00 61 1007.0
20210304033045 39 246 0.0 2.0 0.00 0.00 0.00 61 1007.1
20210304032705 39 246 0.0 2.0 0.00 0.00 0.00 61 1007.1
20210304031523 39 246 0.0 2.0 0.00 0.00 0.00 61 1007.2
20210304031022 39 246 0.0 2.0 0.00 0.00 0.00 61 1007.2
20210304030512 39 246 0.0 5.0 0.00 0.00 0.00 62 1007.2
20210304030221 39 299 0.0 5.0 0.00 0.00 0.00 62 1007.2
20210304025902 39 300 1.0 3.0 0.00 0.00 0.00 62 1007.1
20210304025215 38 315 0.0 2.0 0.00 0.00 0.00 62 1007.2
20210304024522 38 348 0.0 4.0 0.00 0.00 0.00 62 1007.2
20210304024026 38 271 0.0 1.0 0.00 0.00 0.00 62 1007.3
20210304023520 38 34 0.0 1.0 0.00 0.00 0.00 62 1007.3
20210304023135 38 46 0.0 1.0 0.00 0.00 0.00 62 1007.3
20210304022808 38 46 0.0 1.0 0.00 0.00 0.00 62 1007.3
20210304022231 38 46 0.0 1.0 0.00 0.00 0.00 62 1007.3
20210304021530 38 46 0.0 1.0 0.00 0.00 0.00 62 1007.3
20210304021021 38 46 1.0 1.0 0.00 0.00 0.00 62 1007.3
20210304020510 38 51 0.0 1.0 0.00 0.00 0.00 62 1007.4
20210304020022 38 51 0.0 1.0 0.00 0.00 0.00 62 1007.5
20210304015701 38 51 0.0 1.0 0.00 0.00 0.00 61 1007.4
20210304014522 38 51 0.0 1.0 0.00 0.00 0.00 61 1007.3